Change the Weather History Date:

Sunday, January 18, 2015

  Actual Average Record
Temperature  
Mean Temperature 34 °F 16 °F  
Max Temperature 41 °F 24 °F 47 °F (1964)
Min Temperature 27 °F 7 °F -30 °F (1967)
Degree Days  
Heating Degree Days 31 50  
Month to date heating degree days 959 895  
Since 1 July heating degree days 4126 4038  
Cooling Degree Days 0 0  
Month to date cooling degree days 0 0  
Year to date cooling degree days 0 0  
Moisture  
Dew Point 28 °F    
Average Humidity 81    
Maximum Humidity 92    
Minimum Humidity 70    
Precipitation  
Precipitation 0.00 in 0.02 in 1.30 in (1999)
Month to date precipitation 0.06 0.19  
Sea Level Pressure  
Sea Level Pressure 29.92 in    
Wind  
Wind Speed 8 mph (West)    
Max Wind Speed 18 mph    
Max Gust Speed 25 mph    
Visibility 10 miles    
Events      
T = Trace of Precipitation, MM = Missing Value Source: NWS Daily Summary

Daily Weather History Graph

Daily Weather History Graph

Search for Another Location

Airport or City:

Trip Planner

Search our weather history database for the weather conditions in past years. The results will help you decide how hot, cold, wet, or windy it might be!

Date:

Astronomy

Jan. 18, 2015 Rise Set
Actual Time 7:47 AM CST 5:12 PM CST
Civil Twilight 7:15 AM CST 5:43 PM CST
Nautical Twilight 6:40 AM CST 6:18 PM CST
Astronomical Twilight 6:06 AM CST 6:52 PM CST
Moon 5:43 AM CST (1/18) 3:37 PM CST (1/18)
Length of Visible Light 10h 27m
Length of Day
9h 24m
Waning Crescent, 5% of the Moon is Illuminated
Jan 18
Waning Crescent
Jan 20
New
Jan 26
First Quarter
Feb 3
Full
Feb 11
Last Quarter

Hourly Weather History & Observations

Time (CST) Temp. Windchill Dew Point Humidity Pressure Visibility Wind Dir Wind Speed Gust Speed Precip Events Conditions
12:52 AM 32.0 °F 21.2 °F 27.0 °F 82% 29.80 in 10.0 mi WNW 16.1 mph - N/A   Clear
1:52 AM 30.9 °F 19.8 °F 27.0 °F 85% 29.82 in 10.0 mi WNW 16.1 mph - N/A   Clear
2:52 AM 32.0 °F 21.6 °F 26.1 °F 79% 29.84 in 10.0 mi WNW 15.0 mph - N/A   Clear
3:52 AM 30.0 °F 19.1 °F 26.1 °F 85% 29.85 in 10.0 mi WNW 15.0 mph - N/A   Clear
4:52 AM 28.9 °F 18.6 °F 25.0 °F 85% 29.86 in 10.0 mi WNW 12.7 mph - N/A   Clear
5:52 AM 28.9 °F 19.8 °F 25.0 °F 85% 29.87 in 10.0 mi WNW 10.4 mph - N/A   Clear
6:52 AM 28.0 °F 18.1 °F 24.1 °F 85% 29.88 in 10.0 mi WNW 11.5 mph - N/A   Clear
7:52 AM 27.0 °F 16.7 °F 23.0 °F 85% 29.90 in 10.0 mi West 11.5 mph - N/A   Clear
8:52 AM 28.9 °F 20.4 °F 25.0 °F 85% 29.92 in 10.0 mi West 9.2 mph - N/A   Clear
9:52 AM 32.0 °F 24.2 °F 26.1 °F 79% 29.93 in 10.0 mi West 9.2 mph - N/A   Clear
10:52 AM 35.1 °F 27.4 °F 27.0 °F 72% 29.95 in 10.0 mi West 10.4 mph - N/A   Clear
11:52 AM 37.0 °F 30.4 °F 28.9 °F 73% 29.94 in 10.0 mi West 9.2 mph - N/A   Clear
12:52 PM 37.9 °F 30.5 °F 28.9 °F 70% 29.93 in 10.0 mi WNW 11.5 mph - N/A   Clear
1:52 PM 39.0 °F 31.8 °F 30.0 °F 70% 29.92 in 10.0 mi West 11.5 mph - N/A   Clear
2:52 PM 39.9 °F 34.5 °F 30.0 °F 68% 29.92 in 10.0 mi WNW 8.1 mph - N/A   Clear
3:52 PM 39.9 °F 37.8 °F 30.9 °F 70% 29.94 in 10.0 mi WNW 3.5 mph - N/A   Clear
4:52 PM 37.9 °F - 30.9 °F 76% 29.95 in 10.0 mi Calm Calm - N/A   Clear
5:52 PM 33.1 °F - 28.0 °F 82% 29.98 in 10.0 mi Calm Calm - N/A   Clear
6:52 PM 30.9 °F - 28.0 °F 89% 29.98 in 10.0 mi Calm Calm - N/A   Clear
7:52 PM 30.0 °F 25.2 °F 28.0 °F 92% 29.98 in 10.0 mi East 4.6 mph - N/A   Clear
8:52 PM 30.0 °F - 28.9 °F 96% 30.00 in 10.0 mi Calm Calm - N/A   Clear
9:52 PM 30.9 °F 25.2 °F 28.9 °F 92% 29.99 in 10.0 mi SSE 5.8 mph - N/A   Clear
10:52 PM 30.0 °F 24.1 °F 28.9 °F 96% 29.98 in 10.0 mi South 5.8 mph - N/A   Clear
11:52 PM 30.0 °F 26.5 °F 28.9 °F 96% 29.98 in 10.0 mi South 3.5 mph - N/A   Clear